Wetterdaten: Dienstag, 14.10.2014
Datum Zeit Temp. A. Feuchte A. Luftdruck Regen Wind Richtung Richtung Sonnenschein ET UV Solar Taupunkt Windchill Windben Empfang
14.10.2014 00:00 14,1 C 86 % 1006,0 hPa 0,3 l/m 0,4 km/h (0 Bft) O-SO 102 0 min 0,000 mm 0,0 UV-I 0 W/m 11,8 C 14,1 C 4,0 km/h (1 Bft) 0,00 %
14.10.2014 00:15 14,0 C 86 % 1005,1 hPa 0,6 l/m 2,9 km/h (1 Bft) SO 138 0 min 0,000 mm 0,0 UV-I 0 W/m 11,7 C 14,0 C 7,9 km/h (2 Bft) 0,00 %
14.10.2014 00:30 14,0 C 86 % 1003,3 hPa 0,6 l/m 2,9 km/h (1 Bft) S-SW 210 0 min 0,000 mm 0,0 UV-I 0 W/m 11,7 C 14,0 C 7,9 km/h (2 Bft) 0,00 %
14.10.2014 00:45 14,0 C 86 % 1000,0 hPa 0,0 l/m 15,5 km/h (3 Bft) O-NO 68 0 min 0,000 mm 0,0 UV-I 0 W/m 11,7 C 9,8 C 19,8 km/h (3 Bft) 0,00 %
14.10.2014 01:00 14,0 C 86 % 1004,7 hPa 0,0 l/m 10,4 km/h (2 Bft) W 276 0 min 0,000 mm 0,0 UV-I 0 W/m 11,7 C 11,8 C 11,9 km/h (2 Bft) 0,00 %
14.10.2014 01:15 14,2 C 86 % 1004,5 hPa 0,0 l/m 0,0 km/h (0 Bft) W-SW 251 0 min 0,000 mm 0,0 UV-I 0 W/m 11,9 C 14,2 C 0,0 km/h (0 Bft) 0,00 %
14.10.2014 01:30 14,1 C 86 % 1004,8 hPa 0,0 l/m 0,0 km/h (0 Bft) SW 223 0 min 0,000 mm 0,0 UV-I 0 W/m 11,8 C 14,1 C 0,0 km/h (0 Bft) 0,00 %
14.10.2014 01:45 14,1 C 86 % 1005,3 hPa 0,0 l/m 0,0 km/h (0 Bft) SW 226 0 min 0,000 mm 0,0 UV-I 0 W/m 11,8 C 14,1 C 0,0 km/h (0 Bft) 0,00 %
14.10.2014 02:00 14,1 C 86 % 1005,7 hPa 0,0 l/m 1,8 km/h (1 Bft) W-SW 250 0 min 0,000 mm 0,0 UV-I 0 W/m 11,8 C 14,1 C 4,0 km/h (1 Bft) 0,00 %
14.10.2014 02:15 14,2 C 86 % 1005,9 hPa 0,0 l/m 1,4 km/h (1 Bft) W-SW 251 0 min 0,000 mm 0,0 UV-I 0 W/m 11,9 C 14,2 C 4,0 km/h (1 Bft) 0,00 %
14.10.2014 02:30 14,2 C 86 % 1006,2 hPa 0,0 l/m 0,0 km/h (0 Bft) W-SW 245 0 min 0,000 mm 0,0 UV-I 0 W/m 11,9 C 14,2 C 0,0 km/h (0 Bft) 0,00 %
14.10.2014 02:45 14,1 C 86 % 1006,0 hPa 0,0 l/m 0,0 km/h (0 Bft) O-SO 105 0 min 0,000 mm 0,0 UV-I 0 W/m 11,8 C 14,1 C 0,0 km/h (0 Bft) 0,00 %
14.10.2014 03:00 14,0 C 86 % 1006,2 hPa 0,0 l/m 0,0 km/h (0 Bft) SW 227 0 min 0,000 mm 0,0 UV-I 0 W/m 11,7 C 14,0 C 0,0 km/h (0 Bft) 0,00 %
14.10.2014 03:15 14,0 C 86 % 1006,4 hPa 0,0 l/m 0,0 km/h (0 Bft) O-SO 118 0 min 0,000 mm 0,0 UV-I 0 W/m 11,7 C 14,0 C 0,0 km/h (0 Bft) 0,00 %
14.10.2014 03:30 13,8 C 86 % 1006,4 hPa 0,0 l/m 0,0 km/h (0 Bft) O 100 0 min 0,000 mm 0,0 UV-I 0 W/m 11,5 C 13,8 C 0,0 km/h (0 Bft) 0,00 %
14.10.2014 03:45 13,7 C 86 % 1006,7 hPa 0,0 l/m 0,4 km/h (0 Bft) NW 322 0 min 0,000 mm 0,0 UV-I 0 W/m 11,4 C 13,7 C 4,0 km/h (1 Bft) 0,00 %
14.10.2014 04:00 13,7 C 86 % 1006,6 hPa 0,0 l/m 1,8 km/h (1 Bft) O 81 0 min 0,000 mm 0,0 UV-I 0 W/m 11,4 C 13,7 C 4,0 km/h (1 Bft) 0,00 %
14.10.2014 04:15 13,8 C 85 % 1006,9 hPa 0,0 l/m 1,8 km/h (1 Bft) SO 140 0 min 0,000 mm 0,0 UV-I 0 W/m 11,3 C 13,8 C 4,0 km/h (1 Bft) 0,00 %
14.10.2014 04:30 13,9 C 84 % 1006,9 hPa 0,0 l/m 3,2 km/h (1 Bft) SW 233 0 min 0,000 mm 0,0 UV-I 0 W/m 11,2 C 13,9 C 7,9 km/h (2 Bft) 0,00 %
14.10.2014 04:45 14,1 C 83 % 1007,2 hPa 0,0 l/m 2,2 km/h (1 Bft) W-NW 288 0 min 0,000 mm 0,0 UV-I 0 W/m 11,3 C 14,1 C 4,0 km/h (1 Bft) 0,00 %
14.10.2014 05:00 14,1 C 83 % 1007,4 hPa 0,0 l/m 0,0 km/h (0 Bft) W-NW 297 0 min 0,000 mm 0,0 UV-I 0 W/m 11,3 C 14,1 C 0,0 km/h (0 Bft) 0,00 %
14.10.2014 05:15 14,1 C 83 % 1007,5 hPa 0,0 l/m 0,7 km/h (0 Bft) W-SW 251 0 min 0,000 mm 0,0 UV-I 0 W/m 11,3 C 14,1 C 4,0 km/h (1 Bft) 0,00 %
14.10.2014 05:30 14,0 C 84 % 1007,8 hPa 0,0 l/m 0,4 km/h (0 Bft) SO 137 0 min 0,000 mm 0,0 UV-I 0 W/m 11,3 C 14,0 C 4,0 km/h (1 Bft) 0,00 %
14.10.2014 05:45 13,9 C 84 % 1008,0 hPa 0,0 l/m 5,4 km/h (1 Bft) W-SW 256 0 min 0,000 mm 0,0 UV-I 0 W/m 11,2 C 13,9 C 7,9 km/h (2 Bft) 0,00 %
14.10.2014 06:00 13,9 C 84 % 1008,1 hPa 0,0 l/m 1,8 km/h (1 Bft) S-SW 199 0 min 0,000 mm 0,0 UV-I 0 W/m 11,2 C 13,9 C 11,9 km/h (2 Bft) 0,00 %
14.10.2014 06:15 13,8 C 83 % 1008,5 hPa 0,0 l/m 0,4 km/h (0 Bft) S 173 0 min 0,000 mm 0,0 UV-I 0 W/m 11,0 C 13,8 C 4,0 km/h (1 Bft) 0,00 %
14.10.2014 06:30 13,5 C 83 % 1008,6 hPa 0,0 l/m 4,0 km/h (1 Bft) W-SW 255 0 min 0,000 mm 0,0 UV-I 0 W/m 10,7 C 13,5 C 7,9 km/h (2 Bft) 0,00 %
14.10.2014 06:45 13,2 C 82 % 1009,1 hPa 0,0 l/m 0,4 km/h (0 Bft) W-SW 256 0 min 0,000 mm 0,0 UV-I 0 W/m 10,2 C 13,2 C 4,0 km/h (1 Bft) 0,00 %
14.10.2014 07:00 13,0 C 83 % 1009,2 hPa 0,0 l/m 0,0 km/h (0 Bft) O 92 0 min 0,000 mm 0,0 UV-I 0 W/m 10,2 C 13,0 C 0,0 km/h (0 Bft) 0,00 %
14.10.2014 07:15 12,9 C 83 % 1009,3 hPa 0,0 l/m 0,7 km/h (0 Bft) SW 230 0 min 0,000 mm 0,0 UV-I 0 W/m 10,1 C 12,9 C 4,0 km/h (1 Bft) 0,00 %
14.10.2014 07:30 12,7 C 83 % 1009,5 hPa 0,0 l/m 4,3 km/h (1 Bft) W-SW 253 0 min 0,000 mm 0,0 UV-I 1 W/m 9,9 C 12,7 C 7,9 km/h (2 Bft) 0,00 %
14.10.2014 07:45 12,7 C 83 % 1009,9 hPa 0,0 l/m 0,7 km/h (0 Bft) W 272 0 min 0,000 mm 0,0 UV-I 9 W/m 9,9 C 12,7 C 4,0 km/h (1 Bft) 0,00 %
14.10.2014 08:00 12,7 C 83 % 1010,1 hPa 0,0 l/m 0,0 km/h (0 Bft) O-SO 105 0 min 0,000 mm 0,0 UV-I 11 W/m 9,9 C 12,7 C 0,0 km/h (0 Bft) 0,00 %
14.10.2014 08:15 12,9 C 83 % 1010,1 hPa 0,0 l/m 0,0 km/h (0 Bft) SW 234 0 min 0,000 mm 0,0 UV-I 28 W/m 10,1 C 12,9 C 0,0 km/h (0 Bft) 0,00 %
14.10.2014 08:30 13,1 C 83 % 1010,2 hPa 0,0 l/m 0,4 km/h (0 Bft) W-SW 255 0 min 0,000 mm 1,0 UV-I 42 W/m 10,3 C 13,1 C 4,0 km/h (1 Bft) 0,00 %
14.10.2014 08:45 13,2 C 82 % 1010,3 hPa 0,0 l/m 0,0 km/h (0 Bft) N-NW 334 0 min 0,000 mm 1,0 UV-I 41 W/m 10,2 C 13,2 C 0,0 km/h (0 Bft) 0,00 %
14.10.2014 09:00 13,4 C 81 % 1010,5 hPa 0,0 l/m 0,0 km/h (0 Bft) W-NW 293 0 min 0,000 mm 1,0 UV-I 57 W/m 10,2 C 13,4 C 0,0 km/h (0 Bft) 0,00 %
14.10.2014 09:15 13,8 C 80 % 1010,2 hPa 0,0 l/m 0,0 km/h (0 Bft) O-SO 123 0 min 0,000 mm 1,0 UV-I 104 W/m 10,4 C 13,8 C 0,0 km/h (0 Bft) 0,00 %
14.10.2014 09:30 14,5 C 76 % 1010,3 hPa 0,0 l/m 0,4 km/h (0 Bft) N 357 0 min 0,000 mm 1,0 UV-I 128 W/m 10,3 C 14,5 C 4,0 km/h (1 Bft) 0,00 %
14.10.2014 09:45 14,9 C 74 % 1010,5 hPa 0,0 l/m 0,7 km/h (0 Bft) W-SW 256 0 min 0,000 mm 1,0 UV-I 137 W/m 10,3 C 14,9 C 4,0 km/h (1 Bft) 0,00 %
14.10.2014 10:00 15,0 C 73 % 1010,6 hPa 0,0 l/m 0,4 km/h (0 Bft) W-SW 256 0 min 0,000 mm 1,0 UV-I 175 W/m 10,2 C 15,0 C 4,0 km/h (1 Bft) 0,00 %
14.10.2014 10:15 14,9 C 73 % 1010,8 hPa 0,0 l/m 5,8 km/h (2 Bft) W-SW 253 0 min 0,000 mm 2,0 UV-I 94 W/m 10,1 C 14,9 C 7,9 km/h (2 Bft) 0,00 %
14.10.2014 10:30 15,3 C 71 % 1010,1 hPa 0,0 l/m 0,0 km/h (0 Bft) S 180 0 min 0,000 mm 2,0 UV-I 134 W/m 10,1 C 15,3 C 0,0 km/h (0 Bft) 0,00 %
14.10.2014 10:45 16,7 C 64 % 1009,8 hPa 0,0 l/m 0,4 km/h (0 Bft) W-NW 286 0 min 0,000 mm 2,0 UV-I 156 W/m 9,9 C 16,7 C 4,0 km/h (1 Bft) 0,00 %
14.10.2014 11:00 17,4 C 62 % 1009,3 hPa 0,0 l/m 1,4 km/h (1 Bft) S 186 0 min 0,000 mm 3,0 UV-I 194 W/m 10,0 C 17,4 C 4,0 km/h (1 Bft) 0,00 %
14.10.2014 11:15 17,5 C 62 % 1009,3 hPa 0,0 l/m 0,0 km/h (0 Bft) N 349 0 min 0,000 mm 3,0 UV-I 210 W/m 10,1 C 17,5 C 0,0 km/h (0 Bft) 0,00 %
14.10.2014 11:30 17,5 C 62 % 1009,4 hPa 0,0 l/m 0,4 km/h (0 Bft) W-SW 251 0 min 0,000 mm 3,0 UV-I 233 W/m 10,1 C 17,5 C 4,0 km/h (1 Bft) 0,00 %
14.10.2014 11:45 17,4 C 63 % 1009,8 hPa 0,0 l/m 0,0 km/h (0 Bft) SW 214 0 min 0,000 mm 2,0 UV-I 114 W/m 10,3 C 17,4 C 0,0 km/h (0 Bft) 0,00 %
14.10.2014 12:00 17,2 C 63 % 1009,3 hPa 0,0 l/m 2,9 km/h (1 Bft) W-NW 289 0 min 0,000 mm 2,0 UV-I 215 W/m 10,1 C 17,2 C 4,0 km/h (1 Bft) 0,00 %
14.10.2014 12:15 17,5 C 62 % 1009,0 hPa 0,0 l/m 0,0 km/h (0 Bft) N 351 0 min 0,000 mm 2,0 UV-I 121 W/m 10,1 C 17,5 C 0,0 km/h (0 Bft) 0,00 %
14.10.2014 12:30 17,1 C 62 % 1009,7 hPa 0,0 l/m 0,0 km/h (0 Bft) S 186 0 min 0,000 mm 2,0 UV-I 118 W/m 9,8 C 17,1 C 0,0 km/h (0 Bft) 0,00 %
14.10.2014 12:45 17,3 C 63 % 1009,0 hPa 0,0 l/m 0,0 km/h (0 Bft) SW 214 0 min 0,000 mm 2,0 UV-I 136 W/m 10,2 C 17,3 C 0,0 km/h (0 Bft) 0,00 %
14.10.2014 13:00 17,6 C 62 % 1008,7 hPa 0,0 l/m 0,0 km/h (0 Bft) O-NO 78 0 min 0,000 mm 2,0 UV-I 165 W/m 10,2 C 17,6 C 0,0 km/h (0 Bft) 0,00 %
14.10.2014 13:15 18,1 C 61 % 1008,4 hPa 0,0 l/m 2,9 km/h (1 Bft) W-SW 243 0 min 0,000 mm 2,0 UV-I 162 W/m 10,5 C 18,1 C 4,0 km/h (1 Bft) 0,00 %
14.10.2014 13:30 18,4 C 60 % 1008,5 hPa 0,0 l/m 0,0 km/h (0 Bft) S 189 0 min 0,000 mm 2,0 UV-I 166 W/m 10,5 C 18,4 C 0,0 km/h (0 Bft) 0,00 %
14.10.2014 13:45 18,3 C 59 % 1007,7 hPa 0,0 l/m 0,4 km/h (0 Bft) W-NW 298 0 min 0,000 mm 2,0 UV-I 187 W/m 10,1 C 18,3 C 4,0 km/h (1 Bft) 0,00 %
14.10.2014 14:00 17,7 C 61 % 1008,7 hPa 0,0 l/m 0,0 km/h (0 Bft) N 352 0 min 0,000 mm 2,0 UV-I 146 W/m 10,1 C 17,7 C 0,0 km/h (0 Bft) 0,00 %
14.10.2014 14:15 17,4 C 60 % 1007,8 hPa 0,0 l/m 0,0 km/h (0 Bft) NO 40 0 min 0,000 mm 2,0 UV-I 97 W/m 9,6 C 17,4 C 0,0 km/h (0 Bft) 0,00 %
14.10.2014 14:30 17,6 C 59 % 1007,6 hPa 0,0 l/m 2,2 km/h (1 Bft) N-NW 334 0 min 0,000 mm 2,0 UV-I 84 W/m 9,5 C 17,6 C 4,0 km/h (1 Bft) 0,00 %
14.10.2014 14:45 17,8 C 55 % 1007,4 hPa 0,0 l/m 0,0 km/h (0 Bft) W-NW 302 0 min 0,000 mm 2,0 UV-I 81 W/m 8,6 C 17,8 C 0,0 km/h (0 Bft) 0,00 %
14.10.2014 15:00 17,9 C 57 % 1007,2 hPa 0,0 l/m 0,4 km/h (0 Bft) W-NW 288 15 min 0,000 mm 2,0 UV-I 266 W/m 9,3 C 17,9 C 4,0 km/h (1 Bft) 0,00 %
14.10.2014 15:15 18,0 C 57 % 1006,8 hPa 0,0 l/m 0,4 km/h (0 Bft) O 95 15 min 0,000 mm 2,0 UV-I 299 W/m 9,4 C 18,0 C 4,0 km/h (1 Bft) 0,00 %
14.10.2014 15:30 18,0 C 55 % 1007,1 hPa 0,0 l/m 1,4 km/h (1 Bft) O 100 15 min 0,000 mm 1,0 UV-I 311 W/m 8,8 C 18,0 C 4,0 km/h (1 Bft) 0,00 %
14.10.2014 15:45 18,0 C 56 % 1007,0 hPa 0,0 l/m 0,4 km/h (0 Bft) N-NW 348 15 min 0,000 mm 1,0 UV-I 300 W/m 9,1 C 18,0 C 4,0 km/h (1 Bft) 0,00 %
14.10.2014 16:00 18,0 C 55 % 1007,1 hPa 0,0 l/m 4,0 km/h (1 Bft) O-SO 102 15 min 0,000 mm 1,0 UV-I 290 W/m 8,8 C 18,0 C 7,9 km/h (2 Bft) 0,00 %
14.10.2014 16:15 17,8 C 58 % 1007,1 hPa 0,0 l/m 0,0 km/h (0 Bft) NO 35 15 min 0,000 mm 1,0 UV-I 300 W/m 9,4 C 17,8 C 0,0 km/h (0 Bft) 0,00 %
14.10.2014 16:30 17,7 C 59 % 1007,0 hPa 0,0 l/m 0,0 km/h (0 Bft) S 172 15 min 0,000 mm 1,0 UV-I 290 W/m 9,6 C 17,7 C 0,0 km/h (0 Bft) 0,00 %
14.10.2014 16:45 17,7 C 57 % 1007,0 hPa 0,0 l/m 0,4 km/h (0 Bft) N 357 0 min 0,000 mm 1,0 UV-I 98 W/m 9,1 C 17,7 C 4,0 km/h (1 Bft) 0,00 %
14.10.2014 17:00 17,7 C 57 % 1007,1 hPa 0,0 l/m 0,0 km/h (0 Bft) O 88 15 min 0,000 mm 1,0 UV-I 380 W/m 9,1 C 17,7 C 0,0 km/h (0 Bft) 0,00 %
14.10.2014 17:15 17,3 C 58 % 1007,6 hPa 0,0 l/m 0,7 km/h (0 Bft) O 101 15 min 0,000 mm 1,0 UV-I 89 W/m 9,0 C 17,3 C 4,0 km/h (1 Bft) 0,00 %
14.10.2014 17:30 16,8 C 60 % 1007,6 hPa 0,0 l/m 0,0 km/h (0 Bft) O-SO 110 15 min 0,000 mm 0,0 UV-I 67 W/m 9,0 C 16,8 C 0,0 km/h (0 Bft) 0,00 %
14.10.2014 17:45 16,2 C 63 % 1007,7 hPa 0,0 l/m 0,0 km/h (0 Bft) SO 145 0 min 0,000 mm 0,0 UV-I 33 W/m 9,1 C 16,2 C 0,0 km/h (0 Bft) 0,00 %
14.10.2014 18:00 15,3 C 67 % 1007,8 hPa 0,0 l/m 0,0 km/h (0 Bft) SO 146 0 min 0,000 mm 0,0 UV-I 6 W/m 9,2 C 15,3 C 0,0 km/h (0 Bft) 0,00 %
14.10.2014 18:15 15,0 C 70 % 1007,6 hPa 0,0 l/m 0,0 km/h (0 Bft) SO 146 0 min 0,000 mm 0,0 UV-I 0 W/m 9,6 C 15,0 C 0,0 km/h (0 Bft) 0,00 %
14.10.2014 18:30 14,7 C 70 % 1007,8 hPa 0,0 l/m 0,0 km/h (0 Bft) SO 146 0 min 0,000 mm 0,0 UV-I 0 W/m 9,3 C 14,7 C 0,0 km/h (0 Bft) 0,00 %
14.10.2014 18:45 14,4 C 70 % 1007,8 hPa 0,0 l/m 0,0 km/h (0 Bft) SO 138 0 min 0,000 mm 0,0 UV-I 0 W/m 9,0 C 14,4 C 0,0 km/h (0 Bft) 0,00 %
14.10.2014 19:00 14,5 C 68 % 1007,9 hPa 0,0 l/m 0,0 km/h (0 Bft) SO 127 0 min 0,000 mm 0,0 UV-I 0 W/m 8,7 C 14,5 C 0,0 km/h (0 Bft) 0,00 %
14.10.2014 19:15 14,4 C 71 % 1008,0 hPa 0,0 l/m 0,0 km/h (0 Bft) SO 143 0 min 0,000 mm 0,0 UV-I 0 W/m 9,2 C 14,4 C 0,0 km/h (0 Bft) 0,00 %
14.10.2014 19:30 13,9 C 70 % 1008,0 hPa 0,0 l/m 0,4 km/h (0 Bft) S-SO 148 0 min 0,000 mm 0,0 UV-I 0 W/m 8,5 C 13,9 C 4,0 km/h (1 Bft) 0,00 %
14.10.2014 19:45 13,9 C 70 % 1008,1 hPa 0,0 l/m 0,0 km/h (0 Bft) O-SO 116 0 min 0,000 mm 0,0 UV-I 0 W/m 8,5 C 13,9 C 0,0 km/h (0 Bft) 0,00 %
14.10.2014 20:00 14,0 C 69 % 1008,1 hPa 0,0 l/m 0,0 km/h (0 Bft) SO 136 0 min 0,000 mm 0,0 UV-I 0 W/m 8,4 C 14,0 C 0,0 km/h (0 Bft) 0,00 %
14.10.2014 20:15 14,1 C 69 % 1008,1 hPa 0,0 l/m 2,9 km/h (1 Bft) O-SO 106 0 min 0,000 mm 0,0 UV-I 0 W/m 8,5 C 14,1 C 4,0 km/h (1 Bft) 0,00 %
14.10.2014 20:30 14,1 C 70 % 1008,0 hPa 0,0 l/m 0,0 km/h (0 Bft) S-SO 148 0 min 0,000 mm 0,0 UV-I 0 W/m 8,7 C 14,1 C 0,0 km/h (0 Bft) 0,00 %
14.10.2014 20:45 13,8 C 71 % 1007,9 hPa 0,0 l/m 0,7 km/h (0 Bft) O-SO 120 0 min 0,000 mm 0,0 UV-I 0 W/m 8,6 C 13,8 C 4,0 km/h (1 Bft) 0,00 %
14.10.2014 21:00 13,6 C 73 % 1007,7 hPa 0,0 l/m 0,0 km/h (0 Bft) O-SO 119 0 min 0,000 mm 0,0 UV-I 0 W/m 8,9 C 13,6 C 0,0 km/h (0 Bft) 0,00 %
14.10.2014 21:15 12,9 C 77 % 1008,3 hPa 0,0 l/m 0,0 km/h (0 Bft) SO 132 0 min 0,000 mm 0,0 UV-I 0 W/m 9,0 C 12,9 C 0,0 km/h (0 Bft) 0,00 %
14.10.2014 21:30 11,9 C 79 % 1008,3 hPa 0,0 l/m 0,0 km/h (0 Bft) SO 132 0 min 0,000 mm 0,0 UV-I 0 W/m 8,4 C 11,9 C 0,0 km/h (0 Bft) 0,00 %
14.10.2014 21:45 11,6 C 80 % 1008,4 hPa 0,0 l/m 0,0 km/h (0 Bft) S-SO 162 0 min 0,000 mm 0,0 UV-I 0 W/m 8,3 C 11,6 C 0,0 km/h (0 Bft) 0,00 %
14.10.2014 22:00 11,5 C 81 % 1008,2 hPa 0,0 l/m 0,0 km/h (0 Bft) S-SO 162 0 min 0,000 mm 0,0 UV-I 0 W/m 8,4 C 11,5 C 0,0 km/h (0 Bft) 0,00 %
14.10.2014 22:15 11,2 C 81 % 1008,3 hPa 0,0 l/m 0,0 km/h (0 Bft) S-SO 163 0 min 0,000 mm 0,0 UV-I 0 W/m 8,1 C 11,2 C 0,0 km/h (0 Bft) 0,00 %
14.10.2014 22:30 10,9 C 83 % 1008,4 hPa 0,0 l/m 0,0 km/h (0 Bft) S-SO 164 0 min 0,000 mm 0,0 UV-I 0 W/m 8,1 C 10,9 C 0,0 km/h (0 Bft) 0,00 %
14.10.2014 22:45 10,8 C 83 % 1008,5 hPa 0,0 l/m 0,0 km/h (0 Bft) S-SO 164 0 min 0,000 mm 0,0 UV-I 0 W/m 8,0 C 10,8 C 0,0 km/h (0 Bft) 0,00 %
14.10.2014 23:00 10,5 C 83 % 1008,3 hPa 0,0 l/m 0,0 km/h (0 Bft) S-SO 164 0 min 0,000 mm 0,0 UV-I 0 W/m 7,7 C 10,5 C 0,0 km/h (0 Bft) 0,00 %
14.10.2014 23:15 10,5 C 85 % 1008,2 hPa 0,0 l/m 0,0 km/h (0 Bft) S-SO 164 0 min 0,000 mm 0,0 UV-I 0 W/m 8,1 C 10,5 C 0,0 km/h (0 Bft) 0,00 %
14.10.2014 23:30 10,3 C 84 % 1007,9 hPa 0,0 l/m 0,0 km/h (0 Bft) S-SO 165 0 min 0,000 mm 0,0 UV-I 0 W/m 7,7 C 10,3 C 0,0 km/h (0 Bft) 0,00 %
14.10.2014 23:45 10,0 C 85 % 1007,9 hPa 0,0 l/m 0,0 km/h (0 Bft) S-SO 165 0 min 0,000 mm 0,0 UV-I 0 W/m 7,6 C 10,0 C 0,0 km/h (0 Bft) 0,00 %
_ Min-Zeit 23:45 14:45 00:45 - 01:15 - - - - - - 23:45 00:45 01:15 00:00
Minimum _ 10,0 C 55 % 1000,0 hPa - 0,0 km/h (0 Bft) - - - - - - 7,6 C 9,8 C 0,0 km/h (0 Bft) 0,00 %
_ Max-Zeit 13:30 00:00 10:15 00:15 00:45 - - 15:00 00:00 11:00 17:00 01:15 13:30 00:45 00:00
Maximum _ 18,4 C 86 % 1010,8 hPa 0,6 l/m 15,5 km/h
O-NO (3 Bft)
- - 15 min 0,000 mm 3,0 UV-I 380 W/m 11,9 C 18,4 C 19,8 km/h
O-NO (3 Bft)
0,00 %
Durchschnitt _ 14,7 C 74 % 1007,9 hPa #1,5 l/m 1,0 km/h (0 Bft) W-SW - #2:30 h #0,000 mm 1,7 UV-I 146 W/m 9,9 C 14,7 C 2,5 km/h (1 Bft) 0,00 %